• In Hungary
  • List of Countries
  • For 7 days
  • Water Temperature
  • Satellite Maps
  • Weather Map
  • News
  • Weather Widgets
  • user-avatar
    Login

    Hourly Weather SanFrancisco

    Today, 18 December, Monday

    Time Temperature Precipitation Wind Pressure Humidity
    00:00 +27°C° 0 mm 7 mps 758 mmHg 77%
    01:00 +26°C° 0 mm 6 mps 758 mmHg 79%
    02:00 +26°C° 0 mm 6 mps 758 mmHg 79%
    03:00 +26°C° 0 mm 6 mps 758 mmHg 79%
    04:00 +26°C° 0 mm 6 mps 758 mmHg 79%
    05:00 +27°C° 0 mm 6 mps 758 mmHg 78%
    06:00 +27°C° 0 mm 6 mps 758 mmHg 76%
    07:00 +27°C° 0 mm 6 mps 759 mmHg 75%
    08:00 +30°C° 0 mm 6 mps 759 mmHg 66%
    09:00 +33°C° 0 mm 6 mps 759 mmHg 58%
    10:00 +35°C° 0 mm 6 mps 759 mmHg 49%
    11:00 +36°C° 0 mm 6 mps 758 mmHg 46%
    12:00 +36°C° 0 mm 6 mps 758 mmHg 43%
    13:00 +38°C° 0 mm 6 mps 757 mmHg 40%
    14:00 +36°C° 0 mm 7 mps 757 mmHg 44%
    15:00 +35°C° 0 mm 7 mps 756 mmHg 47%
    16:00 +34°C° 0 mm 8 mps 756 mmHg 51%
    17:00 +33°C° 0 mm 8 mps 756 mmHg 56%
    18:00 +32°C° 0 mm 8 mps 757 mmHg 61%
    19:00 +31°C° 0 mm 8 mps 757 mmHg 66%
    20:00 +29°C° 0 mm 8 mps 758 mmHg 68%
    21:00 +28°C° 0 mm 8 mps 758 mmHg 70%
    22:00 +28°C° 0 mm 8 mps 759 mmHg 72%
    23:00 +27°C° 0 mm 7 mps 759 mmHg 74%

    Tomorrow, 19 December, Tuesday

    Time Temperature Precipitation Wind Pressure Humidity
    00:00 +27°C° 0 mm 7 mps 758 mmHg 75%
    01:00 +26°C° 0 mm 6 mps 758 mmHg 77%
    02:00 +26°C° 0 mm 6 mps 758 mmHg 78%
    03:00 +26°C° 0 mm 6 mps 758 mmHg 78%
    04:00 +26°C° 0 mm 5 mps 758 mmHg 79%
    05:00 +26°C° 0 mm 5 mps 758 mmHg 77%
    06:00 +27°C° 0 mm 5 mps 759 mmHg 76%
    07:00 +27°C° 0 mm 5 mps 759 mmHg 75%
    08:00 +29°C° 0 mm 5 mps 759 mmHg 65%
    09:00 +33°C° 0 mm 5 mps 759 mmHg 56%
    10:00 +35°C° 0 mm 5 mps 760 mmHg 47%
    11:00 +36°C° 0 mm 6 mps 759 mmHg 44%
    12:00 +38°C° 0 mm 6 mps 758 mmHg 41%
    13:00 +39°C° 0 mm 6 mps 757 mmHg 38%
    14:00 +38°C° 0 mm 6 mps 757 mmHg 43%
    15:00 +36°C° 0 mm 7 mps 756 mmHg 47%
    16:00 +34°C° 0 mm 8 mps 756 mmHg 52%
    17:00 +33°C° 0 mm 8 mps 756 mmHg 56%
    18:00 +32°C° 0 mm 8 mps 757 mmHg 61%
    19:00 +31°C° 0 mm 8 mps 757 mmHg 65%
    20:00 +29°C° 0 mm 8 mps 758 mmHg 68%
    21:00 +29°C° 0 mm 7 mps 758 mmHg 70%
    22:00 +28°C° 0 mm 7 mps 758 mmHg 73%
    23:00 +28°C° 0 mm 7 mps 758 mmHg 74%

    Day after tomorrow, 20 December, Wednesday

    Time Temperature Precipitation Wind Pressure Humidity
    00:00 +27°C° 0 mm 6 mps 758 mmHg 76%
    01:00 +27°C° 0 mm 6 mps 758 mmHg 78%
    02:00 +27°C° 0 mm 6 mps 757 mmHg 79%
    03:00 +27°C° 0 mm 5 mps 757 mmHg 79%
    04:00 +26°C° 0 mm 5 mps 757 mmHg 80%
    05:00 +27°C° 0 mm 5 mps 757 mmHg 78%
    06:00 +27°C° 0 mm 5 mps 758 mmHg 77%
    07:00 +28°C° 0 mm 5 mps 758 mmHg 75%
    08:00 +30°C° 0 mm 5 mps 758 mmHg 66%
    09:00 +33°C° 0 mm 5 mps 759 mmHg 57%
    10:00 +35°C° 0 mm 5 mps 759 mmHg 48%
    11:00 +36°C° 0 mm 5 mps 758 mmHg 46%
    12:00 +36°C° 0 mm 6 mps 757 mmHg 44%
    13:00 +38°C° 0 mm 6 mps 756 mmHg 43%
    14:00 +36°C° 0 mm 7 mps 756 mmHg 47%
    15:00 +35°C° 0 mm 7 mps 755 mmHg 52%
    16:00 +33°C° 0 mm 8 mps 755 mmHg 56%
    17:00 +32°C° 0.1 mm 8 mps 755 mmHg 61%
    18:00 +31°C° 0.1 mm 8 mps 756 mmHg 65%
    19:00 +29°C° 0.1 mm 8 mps 756 mmHg 69%
    20:00 +29°C° 0 mm 8 mps 757 mmHg 71%
    21:00 +28°C° 0 mm 7 mps 757 mmHg 73%
    22:00 +28°C° 0 mm 7 mps 758 mmHg 75%
    23:00 +27°C° 0 mm 7 mps 757 mmHg 76%

    21 December, Thursday

    Time Temperature Precipitation Wind Pressure Humidity
    00:00 +27°C° 0 mm 6 mps 757 mmHg 78%
    01:00 +27°C° 0 mm 6 mps 757 mmHg 79%
    02:00 +26°C° 0 mm 6 mps 757 mmHg 80%
    03:00 +26°C° 0 mm 5 mps 756 mmHg 80%
    04:00 +26°C° 0 mm 5 mps 756 mmHg 81%
    05:00 +26°C° 0 mm 5 mps 757 mmHg 80%
    06:00 +26°C° 0 mm 5 mps 757 mmHg 78%
    07:00 +27°C° 0 mm 5 mps 758 mmHg 77%
    08:00 +29°C° 0 mm 5 mps 758 mmHg 66%
    09:00 +32°C° 0 mm 5 mps 758 mmHg 56%
    10:00 +34°C° 0 mm 5 mps 758 mmHg 45%
    11:00 +35°C° 0 mm 5 mps 758 mmHg 41%
    12:00 +36°C° 0 mm 5 mps 757 mmHg 38%
    13:00 +37°C° 0 mm 5 mps 756 mmHg 34%
    14:00 +38°C° 0 mm 6 mps 756 mmHg 37%
    15:00 +36°C° 0 mm 7 mps 755 mmHg 40%
    16:00 +35°C° 0 mm 7 mps 755 mmHg 43%
    17:00 +34°C° 0 mm 8 mps 756 mmHg 51%
    18:00 +32°C° 0 mm 8 mps 756 mmHg 59%
    19:00 +29°C° 0 mm 8 mps 757 mmHg 66%
    20:00 +28°C° 0 mm 8 mps 757 mmHg 69%
    21:00 +28°C° 0 mm 7 mps 757 mmHg 71%
    22:00 +27°C° 0 mm 7 mps 758 mmHg 73%
    23:00 +27°C° 0 mm 6 mps 758 mmHg 75%

    22 December, Friday

    Time Temperature Precipitation Wind Pressure Humidity
    00:00 +26°C° 0 mm 6 mps 757 mmHg 77%
    01:00 +26°C° 0 mm 5 mps 757 mmHg 79%
    02:00 +26°C° 0 mm 5 mps 757 mmHg 80%
    03:00 +25°C° 0 mm 5 mps 757 mmHg 80%
    04:00 +25°C° 0 mm 5 mps 757 mmHg 81%
    05:00 +26°C° 0 mm 5 mps 758 mmHg 79%
    06:00 +26°C° 0 mm 5 mps 758 mmHg 78%
    07:00 +27°C° 0 mm 4 mps 758 mmHg 76%
    08:00 +29°C° 0 mm 5 mps 759 mmHg 68%
    09:00 +32°C° 0 mm 5 mps 759 mmHg 59%
    10:00 +34°C° 0 mm 5 mps 759 mmHg 51%
    11:00 +35°C° 0 mm 5 mps 758 mmHg 48%
    12:00 +36°C° 0 mm 5 mps 757 mmHg 45%
    13:00 +37°C° 0 mm 5 mps 756 mmHg 42%
    14:00 +36°C° 0 mm 6 mps 756 mmHg 47%
    15:00 +35°C° 0 mm 7 mps 756 mmHg 51%
    16:00 +34°C° 0 mm 8 mps 756 mmHg 56%
    17:00 +33°C° 0.1 mm 8 mps 756 mmHg 60%
    18:00 +31°C° 0.1 mm 8 mps 757 mmHg 65%
    19:00 +29°C° 0.1 mm 8 mps 758 mmHg 69%
    20:00 +29°C° 0 mm 8 mps 758 mmHg 71%
    21:00 +28°C° 0 mm 8 mps 758 mmHg 73%
    22:00 +28°C° 0 mm 7 mps 758 mmHg 74%
    23:00 +27°C° 0 mm 7 mps 758 mmHg 75%

    23 December, Saturday

    Time Temperature Precipitation Wind Pressure Humidity
    00:00 +27°C° 0 mm 6 mps 758 mmHg 76%
    01:00 +27°C° 0 mm 6 mps 757 mmHg 77%
    02:00 +27°C° 0 mm 6 mps 757 mmHg 78%
    03:00 +27°C° 0 mm 5 mps 757 mmHg 78%
    04:00 +26°C° 0 mm 5 mps 757 mmHg 79%
    05:00 +27°C° 0 mm 5 mps 758 mmHg 77%
    06:00 +27°C° 0 mm 5 mps 758 mmHg 76%
    07:00 +28°C° 0 mm 5 mps 759 mmHg 75%
    08:00 +30°C° 0 mm 5 mps 759 mmHg 66%
    09:00 +33°C° 0 mm 5 mps 759 mmHg 57%
    10:00 +35°C° 0 mm 6 mps 759 mmHg 48%
    11:00 +35°C° 0 mm 6 mps 758 mmHg 47%
    12:00 +36°C° 0 mm 6 mps 757 mmHg 45%
    13:00 +36°C° 0 mm 6 mps 757 mmHg 44%
    14:00 +35°C° 0.1 mm 6 mps 756 mmHg 46%
    15:00 +35°C° 0.1 mm 7 mps 756 mmHg 49%
    16:00 +34°C° 0.1 mm 7 mps 756 mmHg 52%
    17:00 +33°C° 0 mm 8 mps 756 mmHg 57%
    18:00 +32°C° 0 mm 8 mps 757 mmHg 61%
    19:00 +29°C° 0 mm 8 mps 757 mmHg 66%
    20:00 +29°C° 0 mm 8 mps 757 mmHg 68%
    21:00 +28°C° 0 mm 8 mps 758 mmHg 71%
    22:00 +28°C° 0 mm 7 mps 758 mmHg 73%
    23:00 +27°C° 0 mm 7 mps 758 mmHg 75%
    Show more